CDT,Max TemperatureF,Mean TemperatureF,Min TemperatureF,Max Dew PointF,MeanDew PointF,Min DewpointF,Max Humidity, Mean Humidity, Min Humidity, Max Sea Level PressureIn, Mean Sea Level PressureIn, Min Sea Level PressureIn, Max VisibilityMiles, Mean VisibilityMiles, Min VisibilityMiles, Max Wind SpeedMPH, Mean Wind SpeedMPH, Max Gust SpeedMPH,PrecipitationIn, CloudCover, Events, WindDirDegrees
2013-6-1,77,68,60,70,60,55,94,76,47,30.05,29.90,29.68,10,10,4,20,7,23,0.00,3,Rain-Thunderstorm,293
2013-6-2,68,60,53,55,54,52,94,78,60,30.12,30.07,30.04,10,10,10,10,4,,0.00,2,,354
2013-6-3,77,64,50,61,56,50,100,78,50,30.08,30.00,29.89,10,9,4,10,5,,0.00,0,,124
2013-6-4,78,70,62,68,63,59,100,80,65,30.01,29.94,29.84,10,10,5,23,8,38,0.16,4,Rain-Thunderstorm,140
2013-6-5,80,72,64,66,64,63,100,80,61,30.01,29.94,29.89,10,10,1,17,8,24,0.50,3,Rain-Thunderstorm,311
2013-6-6,73,66,59,63,59,52,100,75,50,30.00,29.97,29.95,10,9,4,13,5,18,0.00,3,,6
2013-6-7,77,65,53,59,55,54,100,72,44,30.04,29.99,29.95,10,10,7,13,2,21,0.00,0,,19
2013-6-8,80,66,53,63,58,52,100,71,47,29.97,29.93,29.83,10,10,7,16,6,21,0.00,0,,155
2013-6-9,82,72,62,64,61,54,94,66,37,29.94,29.89,29.85,10,10,10,14,6,18,0.00,0,Thunderstorm,237
2013-6-10,89,76,64,70,66,61,94,68,46,29.96,29.91,29.88,10,10,10,15,6,20,0.00,0,,213
2013-6-11,91,80,68,72,68,64,88,66,41,30.00,29.95,29.91,10,10,10,21,10,26,0.00,0,,184
2013-6-12,91,82,73,72,70,68,88,69,46,30.00,29.95,29.91,10,10,10,26,13,33,0.00,0,,197
2013-6-13,87,78,69,70,68,64,94,74,52,30.07,30.01,29.96,10,9,5,10,5,17,0.00,0,,59
2013-6-14,91,80,68,73,70,64,88,72,52,30.04,29.98,29.93,10,10,10,13,7,17,0.00,0,,147
2013-6-15,86,78,69,73,70,68,94,81,62,30.04,30.01,29.98,10,10,7,17,8,26,0.06,1,Rain-Thunderstorm,156
2013-6-16,86,76,66,73,69,64,100,83,62,30.03,29.99,29.92,10,9,2,15,5,16,0.00,2,Rain-Thunderstorm,172
2013-6-17,73,68,64,68,65,63,100,86,69,30.03,29.97,29.90,10,9,2,14,5,22,0.32,3,Rain-Thunderstorm,43
2013-6-18,86,74,62,68,64,61,100,76,43,30.07,30.02,29.97,10,9,1,10,3,,0.00,0,,87
2013-6-19,84,72,60,68,65,59,100,76,51,30.07,30.02,29.98,10,10,10,15,4,18,0.00,0,,149
2013-6-20,89,78,68,73,69,64,88,72,55,30.07,30.02,29.96,10,10,10,18,9,25,0.00,1,,157
2013-6-21,91,83,75,72,69,63,83,66,45,30.08,30.03,30.00,10,9,7,20,11,25,0.00,0,,173
2013-6-22,89,80,71,72,69,68,88,69,52,30.06,30.01,29.92,10,9,7,20,10,28,0.00,0,,162
2013-6-23,91,82,73,72,69,64,88,67,43,29.98,29.96,29.90,10,8,5,21,11,26,0.00,0,,168
2013-6-24,87,79,71,70,68,64,88,67,46,30.05,29.99,29.94,10,10,10,21,10,25,0.00,0,,167
2013-6-25,87,80,73,72,70,68,88,70,52,29.97,29.92,29.84,10,9,7,25,12,33,0.00,0,,174
2013-6-26,91,83,75,75,71,68,83,68,52,29.95,29.89,29.85,10,10,7,18,10,25,0.00,0,,190
2013-6-27,96,84,71,77,72,64,94,69,44,29.99,29.95,29.87,10,9,4,12,4,16,0.00,0,,182
2013-6-28,91,80,69,70,65,59,88,59,36,30.00,29.93,29.87,10,10,5,12,6,18,0.00,0,,339
2013-6-29,87,74,62,61,56,52,88,52,29,29.95,29.91,29.85,10,10,0,20,7,25,0.00,0,,353
2013-6-30,80,71,62,57,55,52,77,55,39,30.01,29.96,29.90,10,10,10,15,8,25,0.00,1,,5